Weather History for Jacksonville Craig, FL

Change the Weather History Date:

Friday, July 5, 2013

  Actual Average Record
Temperature  
Mean Temperature 82 °F -  
Max Temperature 89 °F 88 °F 96 °F (1998)
Min Temperature 75 °F 70 °F 66 °F (2000)
Cooling Degree Days 17    
Growing Degree Days 32 (Base 50)    
Moisture  
Dew Point 72 °F    
Average Humidity 75    
Maximum Humidity 88    
Minimum Humidity 61    
Precipitation  
Precipitation 0.00 in - - ()
Sea Level Pressure  
Sea Level Pressure 30.16 in    
Wind  
Wind Speed 6 mph (SE)    
Max Wind Speed 20 mph    
Max Gust Speed 29 mph    
Visibility 10 miles    
Events      
Averages and records for this station are not official NWS values.
T = Trace of Precipitation, MM = Missing Value Source: NWS Daily Summary

Daily Weather History Graph

Daily Weather History Graph

Search for Another Location

Airport:

Trip Planner

Search our weather history database for the weather conditions in past years. The results will help you decide how hot, cold, wet, or windy it might be!

Date:

Astronomy

Jul. 05, 2013 Rise Set
Actual Time 6:29 AM EDT 8:31 PM EDT
Civil Twilight 6:02 AM EDT 8:59 PM EDT
Nautical Twilight 5:28 AM EDT 9:32 PM EDT
Astronomical Twilight 4:53 AM EDT 10:07 PM EDT
Moon 4:24 AM EDT (7/5) 6:29 PM EDT (7/5)
Length of Visible Light 14h 56m
Length of Day
14h 02m
Waning Crescent, 6% of the Moon is Illuminated
Jul 5
Waning Crescent
Jul 8
New
Jul 15
First Quarter
Jul 22
Full
Jul 29
Last Quarter

Hourly Weather History & Observations

Time (EDT) Temp. Heat Index Dew Point Humidity Pressure Visibility Wind Dir Wind Speed Gust Speed Precip Events Conditions
12:53 AM 75.0 °F - 71.1 °F 87% 30.18 in 9.0 mi Calm Calm - N/A   Clear
1:53 AM 75.0 °F - 71.1 °F 87% 30.17 in 9.0 mi Calm Calm - N/A   Clear
2:53 AM 75.9 °F - 71.1 °F 85% 30.15 in 6.0 mi Calm Calm - N/A   Haze
3:53 AM 75.9 °F - 72.0 °F 87% 30.14 in 10.0 mi SE 3.5 mph - N/A   Clear
4:53 AM 75.9 °F - 72.0 °F 87% 30.14 in 10.0 mi Calm Calm - N/A   Clear
5:53 AM 75.0 °F - 71.1 °F 87% 30.15 in 10.0 mi East 4.6 mph - N/A   Clear
6:53 AM 75.0 °F - 71.1 °F 87% 30.15 in 10.0 mi ESE 4.6 mph - N/A   Clear
7:53 AM 77.0 °F - 73.0 °F 88% 30.17 in 10.0 mi Calm Calm - N/A   Clear
8:53 AM 82.0 °F 87.9 °F 73.9 °F 76% 30.17 in 10.0 mi ESE 6.9 mph - N/A   Clear
9:53 AM 84.9 °F 90.7 °F 72.0 °F 65% 30.19 in 10.0 mi SE 9.2 mph - N/A   Clear
10:53 AM 86.0 °F 93.8 °F 73.9 °F 67% 30.19 in 10.0 mi SSE 12.7 mph - N/A   Scattered Clouds
11:53 AM 87.1 °F 94.5 °F 73.0 °F 63% 30.19 in 10.0 mi SSE 16.1 mph 21.9 mph N/A   Scattered Clouds
12:53 PM 88.0 °F 96.5 °F 73.9 °F 63% 30.18 in 10.0 mi SE 17.3 mph 26.5 mph N/A   Scattered Clouds
1:53 PM 89.1 °F 98.0 °F 73.9 °F 61% 30.17 in 10.0 mi SE 15.0 mph 21.9 mph N/A   Scattered Clouds
2:53 PM 88.0 °F 95.6 °F 73.0 °F 61% 30.16 in 10.0 mi SE 15.0 mph 26.5 mph N/A   Scattered Clouds
3:53 PM 87.1 °F 94.5 °F 73.0 °F 63% 30.13 in 10.0 mi SE 19.6 mph 28.8 mph N/A   Scattered Clouds
4:53 PM 87.1 °F 93.6 °F 72.0 °F 61% 30.13 in 10.0 mi SSE 16.1 mph 27.6 mph N/A   Partly Cloudy
5:53 PM 84.9 °F 90.7 °F 72.0 °F 65% 30.13 in 10.0 mi SE 13.8 mph 19.6 mph N/A   Scattered Clouds
6:53 PM 84.0 °F 89.6 °F 72.0 °F 67% 30.14 in 10.0 mi SSE 10.4 mph - N/A   Partly Cloudy
7:53 PM 82.0 °F 86.7 °F 72.0 °F 71% 30.14 in 10.0 mi SSE 8.1 mph - N/A   Clear
8:53 PM 81.0 °F 85.2 °F 72.0 °F 74% 30.14 in 10.0 mi SSE 8.1 mph - N/A   Clear
9:53 PM 80.1 °F 83.8 °F 72.0 °F 76% 30.16 in 10.0 mi SE 6.9 mph - N/A   Clear
10:53 PM 79.0 °F - 73.0 °F 82% 30.17 in 10.0 mi SE 5.8 mph - N/A   Clear
11:53 PM 79.0 °F - 72.0 °F 79% 30.17 in 10.0 mi SE 5.8 mph - N/A   Clear